Regional Weather Roundup
Issued by NWS Midland/Odessa, TX

Skip options and go directly to product.
Home | Oldest Version | Previous Version | Current Version | All | Text Only | Save Text | Print | Product List | Glossary Off

Skip product version selection by date and time.   

755
ASUS44 KMAF 171510
RWRMAF
MIDLAND AREA WEATHER ROUNDUP
NATIONAL WEATHER SERVICE MIDLAND TX
1000 AM CDT WED SEP 17 2014

...IN SOUTHWEST TEXAS AND SOUTHEAST NEW MEXICO...

CITY           SKY/WX    TMP DP  RH WIND       PRES   REMARKS
ALPINE         MOSUNNY   69  61  75 CALM      30.20R
ANDREWS        FAIR      70  67  88 S3        30.09S
ARTESIA        NOT AVBL
BIG SPRING     PTSUNNY   79  71  78 S10       30.09R
CARLSBAD       PTSUNNY   70  70 100 CALM      30.07S FOG
DRYDEN           N/A     79  71  76 E7        30.02S
FORT STOCKTON  MOSUNNY   73  67  81 SE12      30.07R
GUAD PASS      PTSUNNY   69  60  73 SE7       30.21R
HOBBS          PTSUNNY   66  66 100 SE5       30.12R
MARFA          MOSUNNY   66  61  82 CALM      30.18S
MIDLAND AIRPK  NOT AVBL
MIDLAND INTL   CLOUDY    74  68  81 S7        30.07R
ODESSA         CLOUDY    73  66  78 S7        30.08R
PECOS          PTSUNNY   73  65  77 S6        30.05R
PRESIDIO       FAIR      78  62  57 E8        30.04S
SEMINOLE       CLOUDY    70  66  88 S3        30.11R
SNYDER         CLOUDY    73  69  89 S6        30.06S
WINK           PTSUNNY   74  67  78 SE8       30.05R
$$
...OTHER STATIONS IN TEXAS...

CITY           SKY/WX    TMP DP  RH WIND       PRES   REMARKS
ABILENE        PTSUNNY   80  69  69 SW7       30.03R
AMARILLO       PTSUNNY   70  63  78 SW12      30.09R
AUSTIN         CLOUDY    79  75  87 CALM      29.98S
BROWNSVILLE    MOSUNNY   83  79  88 SW6       29.96R
CORPUS CHRISTI PTSUNNY   83  77  82 S15       29.95S
DALLAS FTW     PTSUNNY   82  70  66 S7        29.97S
DEL RIO        CLOUDY    80  74  81 E3        29.97R
EL PASO        CLOUDY    69  64  84 NE8       30.08F
HOUSTON INT    PTSUNNY   82  77  84 CALM      29.97S
LUBBOCK        CLOUDY    69  66  90 S5        30.09R
SAN ANGELO     PTSUNNY   79  69  71 VRB3      30.02F
SAN ANTONIO    PTSUNNY   80  76  87 SE7       29.98S
WACO           CLOUDY    77  72  84 S6        29.99R
WICHITA FALLS  NOT AVBL
$$
...OTHER LOCATIONS IN NEW MEXICO...

CITY           SKY/WX    TMP DP  RH WIND       PRES   REMARKS
ALAMAGORDO     CLOUDY    64  63  94 N8        30.12R
ALBUQUERQUE    LGT RAIN  62  58  86 W3        30.19R
CANNON AFB     DRIZZLE   66  64  94 SW8       30.14S
CLOVIS           N/A     66  63  88 W9        30.16S
HOLLOMAN AFB   PTSUNNY   66  65  96 NW2       30.10S
ROSWELL        CLOUDY    69  66  90 CALM      30.10S
RUIDOSO        CLOUDY    55  55 100 CALM      30.28R
SANTA FE       CLOUDY    59  51  75 CALM      30.24R
TRUTH OR CONSE CLOUDY    64  61  90 CALM      30.15R
TUCUMCARI      CLOUDY    70  62  76 SW13      30.10R
$$

USA.gov is the U.S. government's official web portal to all federal, state and local government web resources and services.